When you browse on this site, cookies collect data to enhance your experience and personalize the content and advertising you see.
Visit our Privacy Policy to learn more. By continuing to use the site, you agree to this use of cookies and data.
  • In Spain
  • List of Countries
  • For 7 days
  • Water Temperature
  • Weather Map
  • Weather Widgets
  • user-avatar
    Login

    Hourly Weather Warwick

    Today, 18 October, Friday

    Time Temperature Precipitation Wind Pressure Humidity
    00:00 +9°C° 0 mm 5 mps 744 mmHg 91%
    01:00 +9°C° 1 mm 5 mps 743 mmHg 91%
    02:00 +9°C° 1 mm 5 mps 742 mmHg 92%
    03:00 +9°C° 1 mm 5 mps 742 mmHg 92%
    04:00 +9°C° 0.5 mm 5 mps 741 mmHg 91%
    05:00 +8°C° 0.5 mm 5 mps 741 mmHg 90%
    06:00 +8°C° 0 mm 3 mps 742 mmHg 91%
    07:00 +8°C° 0 mm 4 mps 742 mmHg 89%
    08:00 +9°C° 0 mm 5 mps 742 mmHg 86%
    09:00 +9°C° 0 mm 7 mps 742 mmHg 83%
    10:00 +10°C° 0.2 mm 7 mps 742 mmHg 80%
    11:00 +11°C° 0.2 mm 8 mps 743 mmHg 76%
    12:00 +12°C° 0.2 mm 8 mps 743 mmHg 73%
    13:00 +12°C° 0.4 mm 8 mps 743 mmHg 74%
    14:00 +11°C° 0.4 mm 8 mps 742 mmHg 75%
    15:00 +11°C° 0.4 mm 8 mps 742 mmHg 76%
    16:00 +10°C° 0.2 mm 7 mps 742 mmHg 78%
    17:00 +10°C° 0.2 mm 7 mps 742 mmHg 81%
    18:00 +9°C° 0.2 mm 6 mps 742 mmHg 83%
    19:00 +9°C° 0.1 mm 7 mps 742 mmHg 84%
    20:00 +9°C° 0.1 mm 7 mps 742 mmHg 84%
    21:00 +9°C° 0.1 mm 7 mps 742 mmHg 85%
    22:00 +9°C° 0 mm 7 mps 742 mmHg 86%
    23:00 +8°C° 0 mm 7 mps 742 mmHg 87%

    Tomorrow, 19 October, Saturday

    Time Temperature Precipitation Wind Pressure Humidity
    00:00 +8°C° 0 mm 7 mps 742 mmHg 88%
    01:00 +8°C° 0 mm 6 mps 742 mmHg 89%
    02:00 +8°C° 0 mm 6 mps 742 mmHg 90%
    03:00 +8°C° 0 mm 5 mps 742 mmHg 91%
    04:00 +7°C° 0 mm 5 mps 742 mmHg 92%
    05:00 +7°C° 0 mm 5 mps 742 mmHg 93%
    06:00 +7°C° 0 mm 4 mps 743 mmHg 93%
    07:00 +8°C° 0 mm 4 mps 743 mmHg 91%
    08:00 +8°C° 0 mm 5 mps 743 mmHg 88%
    09:00 +9°C° 0 mm 5 mps 744 mmHg 86%
    10:00 +10°C° 0 mm 4 mps 744 mmHg 83%
    11:00 +11°C° 0 mm 4 mps 744 mmHg 80%
    12:00 +12°C° 0 mm 4 mps 744 mmHg 78%
    13:00 +12°C° 0.1 mm 4 mps 745 mmHg 76%
    14:00 +12°C° 0.1 mm 4 mps 745 mmHg 74%
    15:00 +13°C° 0.1 mm 4 mps 745 mmHg 72%
    16:00 +11°C° 0.1 mm 4 mps 745 mmHg 78%
    17:00 +10°C° 0.1 mm 4 mps 746 mmHg 83%
    18:00 +9°C° 0.1 mm 3 mps 746 mmHg 88%
    19:00 +9°C° 0 mm 3 mps 747 mmHg 89%
    20:00 +8°C° 0 mm 3 mps 747 mmHg 90%
    21:00 +8°C° 0 mm 3 mps 748 mmHg 91%
    22:00 +8°C° 0 mm 3 mps 748 mmHg 91%
    23:00 +8°C° 0 mm 3 mps 748 mmHg 91%

    Day after tomorrow, 20 October, Sunday

    Time Temperature Precipitation Wind Pressure Humidity
    00:00 +7°C° 0 mm 3 mps 749 mmHg 91%
    01:00 +7°C° 0 mm 3 mps 749 mmHg 92%
    02:00 +7°C° 0 mm 3 mps 749 mmHg 92%
    03:00 +7°C° 0 mm 2 mps 750 mmHg 92%
    04:00 +7°C° 0 mm 3 mps 750 mmHg 92%
    05:00 +7°C° 0 mm 3 mps 750 mmHg 91%
    06:00 +7°C° 0 mm 4 mps 751 mmHg 90%
    07:00 +7°C° 0 mm 5 mps 751 mmHg 86%
    08:00 +8°C° 0 mm 5 mps 752 mmHg 83%
    09:00 +8°C° 0 mm 6 mps 752 mmHg 79%
    10:00 +8°C° 0 mm 6 mps 753 mmHg 76%
    11:00 +9°C° 0 mm 6 mps 753 mmHg 74%
    12:00 +9°C° 0 mm 6 mps 754 mmHg 71%
    13:00 +9°C° 0 mm 6 mps 753 mmHg 72%
    14:00 +9°C° 0 mm 6 mps 753 mmHg 72%
    15:00 +9°C° 0 mm 6 mps 753 mmHg 72%
    16:00 +8°C° 0 mm 5 mps 754 mmHg 73%
    17:00 +8°C° 0 mm 5 mps 754 mmHg 74%
    18:00 +7°C° 0 mm 5 mps 755 mmHg 75%
    19:00 +7°C° 0 mm 5 mps 755 mmHg 78%
    20:00 +7°C° 0 mm 5 mps 755 mmHg 80%
    21:00 +6°C° 0 mm 5 mps 756 mmHg 82%
    22:00 +7°C° 0 mm 5 mps 756 mmHg 83%
    23:00 +7°C° 0 mm 5 mps 756 mmHg 83%

    21 October, Monday

    Time Temperature Precipitation Wind Pressure Humidity
    00:00 +8°C° 0 mm 5 mps 756 mmHg 84%
    01:00 +8°C° 0.1 mm 5 mps 756 mmHg 85%
    02:00 +8°C° 0.1 mm 6 mps 756 mmHg 86%
    03:00 +8°C° 0.1 mm 6 mps 756 mmHg 87%
    04:00 +8°C° 0 mm 6 mps 757 mmHg 86%
    05:00 +8°C° 0 mm 6 mps 757 mmHg 86%
    06:00 +8°C° 0 mm 6 mps 757 mmHg 85%
    07:00 +8°C° 0 mm 6 mps 758 mmHg 85%
    08:00 +8°C° 0 mm 6 mps 758 mmHg 84%
    09:00 +8°C° 0 mm 6 mps 759 mmHg 84%
    10:00 +9°C° 0 mm 5 mps 759 mmHg 83%
    11:00 +9°C° 0 mm 5 mps 760 mmHg 81%
    12:00 +9°C° 0 mm 5 mps 761 mmHg 80%
    13:00 +9°C° 0 mm 5 mps 761 mmHg 80%
    14:00 +10°C° 0 mm 4 mps 761 mmHg 80%
    15:00 +10°C° 0 mm 4 mps 761 mmHg 80%
    16:00 +10°C° 0 mm 4 mps 761 mmHg 81%
    17:00 +10°C° 0 mm 3 mps 762 mmHg 82%
    18:00 +9°C° 0 mm 3 mps 762 mmHg 83%
    19:00 +9°C° 0 mm 2 mps 763 mmHg 85%
    20:00 +8°C° 0 mm 2 mps 763 mmHg 87%
    21:00 +7°C° 0 mm 2 mps 763 mmHg 89%
    22:00 +8°C° 0 mm 1 mps 763 mmHg 90%
    23:00 +7°C° 0 mm 1 mps 763 mmHg 91%

    22 October, Tuesday

    Time Temperature Precipitation Wind Pressure Humidity
    00:00 +7°C° 0 mm 1 mps 764 mmHg 92%
    01:00 +5°C° 0 mm 0 mps 764 mmHg 92%
    02:00 +5°C° 0 mm 0 mps 763 mmHg 92%
    03:00 +5°C° 0 mm 0 mps 763 mmHg 92%
    04:00 +5°C° 0 mm 0 mps 763 mmHg 92%
    05:00 +5°C° 0 mm 0 mps 764 mmHg 92%
    06:00 +5°C° 0 mm 0 mps 764 mmHg 92%
    07:00 +6°C° 0 mm 0 mps 764 mmHg 89%
    08:00 +8°C° 0 mm 1 mps 764 mmHg 86%
    09:00 +9°C° 0 mm 1 mps 764 mmHg 83%
    10:00 +10°C° 0 mm 1 mps 764 mmHg 78%
    11:00 +11°C° 0 mm 1 mps 763 mmHg 73%
    12:00 +13°C° 0 mm 2 mps 763 mmHg 68%
    13:00 +13°C° 0 mm 2 mps 763 mmHg 68%
    14:00 +13°C° 0 mm 2 mps 762 mmHg 68%
    15:00 +13°C° 0 mm 2 mps 762 mmHg 67%
    16:00 +12°C° 0 mm 2 mps 762 mmHg 73%
    17:00 +10°C° 0 mm 2 mps 761 mmHg 78%
    18:00 +9°C° 0 mm 1 mps 761 mmHg 83%
    19:00 +8°C° 0 mm 2 mps 761 mmHg 85%
    20:00 +8°C° 0 mm 2 mps 761 mmHg 86%
    21:00 +8°C° 0 mm 2 mps 761 mmHg 88%
    22:00 +8°C° 0 mm 2 mps 761 mmHg 89%
    23:00 +8°C° 0 mm 2 mps 760 mmHg 90%

    23 October, Wednesday

    Time Temperature Precipitation Wind Pressure Humidity
    00:00 +9°C° 0 mm 2 mps 760 mmHg 91%
    01:00 +8°C° 0 mm 2 mps 760 mmHg 93%
    02:00 +8°C° 0 mm 2 mps 759 mmHg 94%
    03:00 +8°C° 0 mm 2 mps 759 mmHg 95%
    04:00 +9°C° 0 mm 1 mps 759 mmHg 95%
    05:00 +8°C° 0 mm 1 mps 758 mmHg 96%
    06:00 +8°C° 0 mm 1 mps 758 mmHg 96%
    07:00 +9°C° 0 mm 1 mps 758 mmHg 94%
    08:00 +10°C° 0 mm 1 mps 757 mmHg 92%
    09:00 +11°C° 0 mm 1 mps 757 mmHg 90%
    10:00 +12°C° 0 mm 2 mps 757 mmHg 85%
    11:00 +13°C° 0 mm 2 mps 756 mmHg 80%
    12:00 +13°C° 0 mm 3 mps 756 mmHg 75%
    13:00 +13°C° 0 mm 3 mps 756 mmHg 74%
    14:00 +13°C° 0 mm 3 mps 755 mmHg 74%
    15:00 +13°C° 0 mm 3 mps 755 mmHg 73%
    16:00 +12°C° 0 mm 3 mps 755 mmHg 76%
    17:00 +12°C° 0 mm 2 mps 755 mmHg 78%
    18:00 +10°C° 0 mm 2 mps 754 mmHg 81%
    19:00 +10°C° 0 mm 2 mps 755 mmHg 83%
    20:00 +9°C° 0 mm 2 mps 755 mmHg 85%
    21:00 +8°C° 0 mm 3 mps 755 mmHg 88%
    22:00 +8°C° 0 mm 3 mps 755 mmHg 89%
    23:00 +8°C° 0 mm 3 mps 755 mmHg 91%
    Show more